{"data":{"norad_id":66853,"epoch":"2026-05-24T20:06:52.792128Z","epoch_age_seconds":79103,"freshness":"FRESH","line1":"1 66853U 25281F   26144.83811102  .00026815  00000+0  97990-3 0  9995","line2":"2 66853  42.9988 273.2396 0001300 274.6574  85.4129 15.27597455 27830","mean_motion":15.27597455,"eccentricity":0.00013,"inclination_deg":42.9988,"raan_deg":273.2396,"arg_perigee_deg":274.6574,"mean_anomaly_deg":85.4129,"bstar":0.0009799,"rev_number":2783,"period_min":94.265671580344,"perigee_km":482.10488259004,"apogee_km":483.88877738583,"semimajor_km":6861.1338299879,"source":"CELESTRAK","updated_at":"2026-05-25T13:38:21.340880Z"}}